Location: El Centro
(32.7920°N, 115.5620°W)
Time: 09:00:32
(UTC-07:00)

Hamsat - Visible Passes

Search period start: 25 April 2015 00:00
Search period end: 05 May 2015 00:00
Orbit: 590 x 623 km, 97.6° (Epoch: 24 April)

Date Brightness Start Highest point End Pass type
(mag) Time Alt. Az. Time Alt. Az. Time Alt. Az.
25 Apr ? 05:02:58 10° ENE 05:05:01 14° E 05:07:16 10° SE visible
26 Apr ? 05:15:15 10° NE 05:18:17 20° E 05:21:25 10° SE visible
27 Apr ? 05:27:53 10° NE 05:31:30 28° E 05:35:09 10° SSE visible
02 May ? 04:59:15 10° ENE 05:00:52 12° E 05:02:44 10° ESE visible
03 May ? 05:11:17 10° NE 05:14:05 18° E 05:17:01 10° SE visible
04 May ? 05:23:47 10° NE 05:27:16 26° E 05:30:46 10° SSE visible
